FENGYUN 1C DEB

Satellite information

Favourite Embed

Satellite Type and Status

DEBRISIN ORBIT

Key statistics

Satellite FENGYUN 1C DEB at a glance.

Uptime

9715

Days in orbit

Revolutions

≈ 14.4

Per day

Orbit

SSO

Sun Synchronous Orbit

Inclination

99.2

Latest

Satellite identification and parameters

Extended collection of information and parameters for FENGYUN 1C DEB.

Object identification

Identified? True

Debris? True

Object name: FENGYUN 1C DEB

International designator: 1999-025ALR

Object number (NORAD): 30575

Object ID (CCSDS): 30575

Country: PEOPLES REPUBLIC OF CHINA (PRC)

Current information (Y/N): Y

RCS size: SMALL

Orbital parameters

Period: 99.996 minutes

Inclination: 99.1693 deg

SMA: 7136.444 km

Apoapsis: 796.922 km

Periapsis: 719.696 km

RAAN: 77.1067 deg

Eccentricy: 0.00541067

Argument of periapsis: 237.991 deg

Mean anomaly: 176.8015 deg

Mean motion: 14.40058058 rev/day

Mean motion (dot): 0.00005371 rev/day2

B* drag term: 0.0016886357 1/REarth

Two-line elements (TLE)

Creation date: Dec. 12, 2025, 10:14 a.m.

Reference frame: TEME

Reference center: EARTH

Epoch: Dec. 12, 2025, 5:23 a.m. UTC

TLE line 0: 0 FENGYUN 1C DEB

TLE line 1: 1 30575U 99025ALR 25346.22488019 .00005371 00000-0 16886-2 0 9996

TLE line 2: 2 30575 99.1693 77.1067 0054107 237.9910 176.8015 14.40058058982108

Live tracking on map

Real-time ground track for satellite FENGYUN 1C DEB.

In-orbit conjunctions

A list of the most updated potential collisions computed for object FENGYUN 1C DEB.

Target Orbit TCA Probability of collision Miss distance Type
FENGYUN 1C DEB SSO 2025-11-15 04:02:50 0.0001435758 123.0 (m) DEBRIS
IRIDIUM 911 LEO 2025-10-01 23:53:59 0.0006037497 59.0 (m) PAYLOAD
NOAA 16 DEB SSO 2024-11-14 21:22:12 0.0001038015 615.0 (m) DEBRIS
FENGYUN 1C DEB SSO 2024-09-27 08:17:02 0.0007666566 569.0 (m) DEBRIS
CBERS 1 SSO 2024-08-24 08:46:47 0.0001124496 430.0 (m) PAYLOAD

Associated space launch

Chinese polar orbiting meteorological satellite

FENGYUN 1C DEB was lifted into orbit during the mission ‘Long March 4B | Feng Yun 1C’, on board a Long March 4B space rocket.

The launch took place on May 10, 1999, 1:33 a.m. from Launch Complex 7.

For more information about the launch, click the button.

Launch to space Long March 4B | Feng Yun 1C
Long March 4B | Feng Yun 1C

Agency: N/A

Status: Launch Successful

Launch date: May 10, 1999, 1:33 a.m. UTC

Rocket: Long March 4B

Launch pad: Launch Complex 7

Location: Taiyuan Satellite Launch Center, People's Republic of China

...

Latest news about this satellite

There are no fresh news available about this satellite. Check back as we update our databases every day.


Newsletter sign-up

Weekly statistics, charts and insights to help you stay on top of the space industry.